EHI
0 0 0 0 0 0 0 0 0 0 0 0 0 0 0 0 0 0 0 0 0 0 0 0 0 0 0 0 0 0 0 0 0 0 0 0 0 0 0 0 0 0 0 0
0 0 0 0 0 0 0 0 0 0 0 0 0 0 0 0 0 0 0 0 0 0 0 0 0 0 0 0 0 0 0 0 0 0 0 0 0 0 0 0 0 0 0 0
0 0 0 0 0 0 0 0 0 0 0 0 0 0 0 0 0 0 0 0 0 0 0 0 0 0 0 0 0 0 0 0 0 0 0 0 0 0 0 0 0 0 0 0
0 0 0 0 0 0 0 0 0 0 0 0 0 0 0 0 0 0 0 0 0 0 0 0 0 0 0 0 0 0 0 0 0 0 0 0 0 0 0 0 0 0 0 0
0 0 0 0 0 0 0 0 0 0 0 0 0 0 0 0 0 0 0 0 0 0 0 0 0 0 0 0 0 0 0 0 0 0 0 0 0 0 0 0 0 0 0 0
0 0 0 0 0 0 0 0 0 0 0 0 0 0 0 0 0 0 0 0 0 0 0 0 0 0 0 0 0 0 0 0 0 0 0 0 0 0 0 0 0 0 0 0
0 0 0 0 0 0 0 0 0 0 0 0 0 0 0 0 0 0 0 0 0 0 0 0 0 0 0 0 0 0 0 0 0 0 0 0 0 0 0 0 0 0 0 0
0 0 0 0 0 0 0 0 0 0 0 0 0 0 0 0 0 0 0 0 0 0 0 0 0 0 0 0 0 0 0 0 0 0 0 0 0 0 0 0 0 0 0 0
0 0 0 0 0 0 0 0 0 0 0 0 0 0 0 0 0 0 0 0 0 0 0 0 0 0 0 0 0 0 0 0 0 0 0 0 0 0 0 0 0 0 0 0
0 0 0 0 0 0 0 0 0 0 0 0 0 0 0 0 0 0 0 0 0 0 0 0 0 0 0 0 0 0 0 0 0 0 0 0 0 0 0 0 0 0 0 0
0 0 0 0 0 0 0 0 0 0 0 0 0 0 0 0 0 0 0 0 0 0 0 0 0 0 0 0 0 0 0 0 0 0 0 0 0 0 0 0 0 0 0 0
0 0 0 0 0 0 0 0 0 0 0 0 0 0 0 0 0 0 0 0 0 0 0 0 0 0 0 0 0 0 0 0 0 0 0 0 0 0 0 0 0 0 0 0
0 0 0 0 0 0 0 0 0 0 0 0 0 0 0 0 0 0 0 0 0 0 0 0 0 0 0 0 0 0 0 0 0 0 0 0 0 0 0 0 0 0 0 0
0 0 0 0 0 0 0 0 0 0 0 0 0 0 0 0 0 0 0 0 0 0 0 0 0 0 0 0 0 0 0 0 0 0 0 0 0 0 0 0 0 0 0 0
0 0 0 0 0 0 0 0 0 0 0 0 0 0 0 0 0 0 0 0 0 0 0 0 0 0 0 0 0 0 0 0 0 0 0 0 0 0 0 0 0 0 0 0
0 0 0 0 0 0 0 0 0 0 0 0 0 0 0 0 0 0 0 0 0 0 0 0 0 0 0 0 0 0 0 0 0 0 0 0 0 0 0 0 0 0 0 0
0 0 0 0 0 0 0 0 0 0 0 0 0 0 0 0 0 0 0 0 0 0 0 0 0 0 0 0 0 0 0 0 0 0 0 0 0 0 0 0 0 0 0 0
0 0 0 0 0 0 0 0 0 0 0 0 0 0 0 0 0 0 0 0 0 0 0 0 0 0 0 0 0 0 0 0 0 0 0 0 0 0 0 0 0 0 0 0
0 0 0 0 0 0 0 0 0 0 0 0 0 0 0 0 0 0 0 0 0 0 0 0 0 0 0 0 0 0 0 0 0 0 0 0 0 0 0 0 0 0 0 0
0 0 0 0 0 0 0 0 0 0 0 0 0 0 0 0 0 0 0 0 0 0 0 0 0 0 0 0 0 0 0 0 0 0 0 0 0 0 0 0 0 0 0 0
0 0 0 0 0 0 0 0 0 0 0 0 0 0 0 0 0 0 0 0 0 0 0 0 0 0 0 0 0 0 0 0 0 0 0 0 0 0 0 0 0 0 0 0
0 0 0 0 0 0 0 0 0 0 0 0 0 0 0 0 0 0 0 0 0 0 0 0 0 0 0 0 0 0 0 0 0 0 0 0 0 0 0 0 0 0 0 0
0 0 0 0 0 0 0 0 0 0 0 0 0 0 0 0 0 0 0 0 0 0 0 0 0 0 0 0 0 0 0 0 0 0 0 0 0 0 0 0 0 0 0 0
0 0 0 0 0 0 0 0 0 0 0 0 0 0 0 0 0 0 0 0 0 0 0 0 0 0 0 0 0 0 0 0 0 0 0 0 0 0 0 0 0 0 0 0
0 0 0 0 0 0 0 0 0 0 0 0 0 0 0 0 0 0 0 0 0 0 0 0 0 0 0 0 0 0 0 0 0 0 0 0 0 0 0 0 0 0 0 0
0 0 0 0 0 0 0 0 0 0 0 0 0 0 0 0 0 0 0 0 0 0 0 0 0 0 0 0 0 0 0 0 0 0 0 0 0 0 0 0 0 0 0 0
0 0 0 0 0 0 0 0 0 0 0 0 0 0 0 0 0 0 0 0 0 0 0 0 0 0 0 0 0 0 0 0 0 0 0 0 0 0 0 0 0 0 0 0
Wind_Speed
8 8 6 7 9 9 10 10 9 9 10 9 6 5 4 4 3 3 3 3 4 5 6 6 7 7 7 7 7 7 7 7 6 6 6 6 5 5 4 3 4 3 3 3
7 8 8 10 11 12 13 13 13 14 15 9 8 6 6 5 5 5 4 4 5 5 6 7 8 8 7 8 8 8 8 7 7 7 7 6 5 5 4 4 4 3 3 3
5 5 6 9 10 12 11 10 10 13 11 7 7 6 5 4 4 5 4 4 4 5 6 7 8 8 9 8 8 8 8 7 8 7 7 6 6 5 5 4 4 3 3 3
4 3 7 5 1 3 6 8 7 7 7 6 6 5 4 3 4 5 4 3 3 3 4 4 6 7 8 8 8 8 8 8 8 8 7 7 6 5 5 4 4 3 3 3
3 5 8 4 1 1 3 4 3 4 5 5 5 4 3 3 2 3 3 3 3 2 2 3 5 7 8 8 8 8 8 9 9 8 8 8 7 6 5 4 3 3 3 3
3 5 5 1 2 3 2 2 6 6 6 6 6 3 2 5 5 4 4 3 2 1 1 2 4 6 8 8 8 8 8 8 8 8 8 8 7 6 4 4 4 4 3 3
6 6 6 2 2 2 1 2 6 6 6 6 4 3 4 5 4 4 3 3 2 1 1 2 3 5 7 7 7 7 7 7 8 7 7 7 6 5 6 5 5 4 4 3
4 6 5 3 3 2 3 4 5 6 6 6 6 6 6 5 4 3 3 2 2 2 2 2 3 4 5 5 5 6 7 7 7 7 7 7 7 6 6 6 6 5 4 4
3 4 2 2 3 3 4 5 5 6 6 6 7 7 6 5 4 2 2 2 2 2 2 1 2 3 4 4 6 7 7 7 7 7 6 7 7 7 6 6 5 5 5 4
5 4 4 4 4 5 5 6 7 6 7 7 7 7 7 5 4 2 1 1 0 1 1 1 2 2 3 5 6 7 7 7 7 7 7 7 6 6 6 6 6 5 5 5
6 6 5 3 5 7 8 7 7 7 7 7 7 7 6 5 4 3 1 1 0 1 1 1 2 2 3 5 6 6 6 6 6 6 7 6 6 6 7 6 7 7 6 5
4 4 6 7 7 8 9 9 8 8 9 7 6 6 6 4 3 2 2 1 1 1 1 1 2 2 3 4 5 6 5 6 5 5 5 5 5 4 8 8 11 12 10 8
4 7 8 9 8 8 8 9 8 7 8 8 6 5 5 4 3 2 2 1 1 1 1 1 2 2 3 4 4 5 5 5 4 5 5 5 5 5 4 6 10 11 12 13
5 6 7 7 8 8 8 8 8 7 6 5 5 4 4 3 2 2 2 1 1 1 1 1 2 2 2 4 4 4 4 5 5 5 5 5 5 5 5 5 4 4 9 15
5 6 7 9 8 8 7 7 7 6 6 5 4 4 3 3 3 3 2 2 1 0 0 0 1 1 1 3 3 4 4 3 4 4 4 4 4 4 4 5 5 4 3 6
7 7 7 7 8 8 8 7 6 6 5 5 4 4 3 3 2 2 2 2 1 1 1 1 1 1 0 2 2 3 3 5 5 4 4 4 4 5 5 5 5 5 5 5
5 6 7 8 8 8 8 7 6 5 5 4 4 3 3 3 2 2 2 2 2 1 2 1 2 2 1 1 2 2 2 3 5 4 4 4 4 5 5 5 5 6 6 6
4 5 6 7 7 8 7 6 5 4 4 4 3 2 2 2 2 2 2 2 1 1 2 2 2 2 2 1 1 2 2 2 3 3 3 4 4 4 5 5 6 6 5 6
4 5 5 6 6 6 5 5 4 4 3 3 3 2 2 2 2 2 2 2 2 2 2 2 4 2 2 2 2 1 2 2 3 3 3 5 5 4 5 5 5 6 5 5
3 4 4 5 4 4 4 4 4 3 3 3 2 2 2 3 3 3 2 1 1 1 2 3 3 2 2 2 2 2 2 3 3 3 3 4 4 4 5 5 5 5 5 6
3 4 4 4 4 4 4 4 4 3 3 2 2 2 2 3 3 2 2 2 1 2 3 4 2 2 2 3 3 2 2 3 3 3 3 3 4 4 5 5 5 5 5 5
3 4 4 5 4 4 3 3 3 3 3 2 2 2 2 3 3 2 2 1 2 3 2 2 2 3 5 4 2 2 2 2 2 2 3 3 3 4 4 4 5 5 5 5
3 3 4 4 4 4 3 3 3 3 2 2 3 3 3 3 2 2 2 1 1 4 3 2 4 6 7 3 2 2 2 2 2 3 3 3 3 4 4 4 4 4 4 4
4 4 4 4 3 4 4 4 3 2 3 3 3 3 3 2 2 1 2 3 5 5 2 4 7 7 6 2 2 2 2 2 2 3 3 3 3 3 4 4 4 4 4 5
4 4 4 4 4 4 4 4 3 3 3 3 3 3 2 2 2 2 2 2 5 5 3 5 7 7 4 2 2 2 2 3 3 3 2 3 3 4 4 4 4 4 4 4
4 4 4 4 4 3 3 2 3 3 2 3 2 2 2 1 2 2 2 2 4 5 3 2 3 4 2 2 2 3 3 3 4 3 3 3 4 4 4 4 5 5 4 5
4 4 3 3 3 3 3 3 3 3 3 3 3 2 1 1 1 2 2 2 2 2 2 2 2 2 2 2 3 3 3 3 3 3 3 3 3 4 4 5 5 4 4 5
Wind_Direction
267 274 261 252 248 235 230 233 241 259 267 275 284 288 293 293 285 263 241 215 199 190 188 182 178 174 168 162 157 153 151 151 149 139 131 127 126 128 126 122 120 118 116 116
273 266 259 259 253 247 241 240 247 261 267 269 280 286 288 284 282 271 257 235 218 205 195 188 181 176 168 165 162 156 156 155 145 139 137 138 141 141 138 137 134 133 133 133
273 283 286 260 242 238 238 237 240 251 262 282 286 288 290 294 289 279 267 252 230 216 205 194 184 174 172 167 158 158 158 154 150 149 149 149 150 148 149 149 145 144 141 137
284 299 250 247 286 261 257 258 250 259 276 285 291 298 296 297 297 292 288 273 250 224 208 190 173 164 159 153 155 159 160 159 158 156 155 152 154 158 155 149 150 149 147 146
261 267 272 261 266 294 276 281 315 312 316 324 329 319 318 353 343 325 319 302 276 237 203 172 159 154 150 153 157 163 169 169 166 162 160 159 165 165 156 149 150 154 157 158
252 265 267 313 24 11 325 292 18 8 358 350 348 324 316 0 3 351 339 332 325 318 126 149 155 146 151 160 165 177 177 169 162 162 162 164 166 160 151 151 158 160 167 176
243 255 268 345 1 10 309 323 355 357 351 350 345 321 319 338 350 342 334 333 340 5 97 136 138 143 158 165 178 173 157 152 155 158 160 160 157 156 156 159 163 170 178 191
225 234 249 16 10 8 333 336 342 344 340 335 325 322 329 332 330 331 338 358 15 44 63 77 117 140 159 170 161 143 144 149 154 157 159 158 157 161 166 168 173 180 184 196
232 245 316 350 344 348 352 338 338 334 327 323 319 318 318 319 320 328 349 9 24 65 73 67 110 138 159 161 143 142 148 156 159 159 160 161 165 170 174 178 183 187 189 197
291 287 320 324 348 358 350 333 328 323 319 317 310 310 313 315 318 317 332 354 36 109 143 176 156 146 158 151 148 152 161 165 165 167 168 171 175 178 184 188 191 192 196 200
273 296 313 328 351 342 334 328 322 323 318 311 304 302 305 306 313 312 309 324 271 179 187 189 166 166 158 153 154 164 171 172 173 175 175 180 186 192 194 199 196 194 199 194
278 327 314 305 320 321 317 315 315 313 310 307 300 298 301 296 300 302 295 293 275 220 204 200 170 163 158 157 163 170 176 177 177 177 179 182 186 199 211 208 213 214 206 200
301 313 302 299 310 316 312 310 310 302 297 299 300 298 301 301 307 307 302 299 273 255 225 187 168 170 168 163 171 182 184 180 178 180 183 187 188 193 204 219 225 226 224 222
319 314 300 306 311 313 308 308 306 301 298 299 305 306 303 304 309 311 311 309 302 261 218 184 177 185 174 168 179 191 188 186 186 189 190 193 196 198 197 200 210 227 230 230
324 316 302 305 307 310 307 307 308 307 311 318 324 319 319 315 312 323 335 339 336 5 40 160 184 193 165 173 186 194 193 191 189 191 192 194 196 198 203 208 216 219 212 225
313 307 307 310 313 317 318 314 309 309 314 317 321 325 327 326 323 329 346 3 4 353 -0 1 328 322 234 191 197 201 205 204 193 191 194 197 201 205 210 215 219 220 222 218
310 309 315 315 314 313 313 313 311 311 313 315 321 326 324 324 331 344 0 5 8 15 26 16 341 331 291 220 206 209 205 209 206 201 204 206 208 212 215 217 222 227 228 221
290 294 302 306 308 310 310 313 318 321 321 321 323 328 331 333 331 335 343 349 1 31 32 5 344 324 304 277 243 230 216 211 209 213 213 216 219 217 217 222 227 232 233 232
302 306 310 311 311 309 313 320 323 324 327 329 332 338 342 344 339 337 344 350 339 332 349 346 332 321 300 285 281 250 238 227 224 224 222 233 234 226 225 229 232 233 231 226
304 310 310 313 319 319 317 317 319 320 326 330 332 338 348 347 344 342 341 337 347 355 341 331 323 309 301 290 287 262 251 243 239 236 229 228 233 234 233 235 236 238 237 236
307 309 309 307 306 308 309 313 313 314 320 325 326 326 326 328 332 330 322 311 337 356 335 329 326 317 310 309 289 268 254 252 250 246 244 242 243 243 242 241 240 241 242 242
297 298 299 300 299 300 303 306 307 306 313 320 322 320 317 316 319 313 288 275 310 336 336 321 315 317 318 316 292 280 271 265 262 257 253 253 252 254 253 251 249 249 247 245
286 286 289 293 293 292 297 297 296 297 298 298 301 302 297 294 297 295 299 318 326 330 330 310 317 319 319 314 293 284 284 279 274 270 265 262 262 261 262 262 261 262 260 256
281 287 286 288 288 288 287 284 280 276 275 279 279 279 281 291 294 265 260 311 322 322 317 314 320 322 324 315 298 292 288 285 284 283 278 271 267 266 266 267 267 267 266 265
267 273 275 275 273 271 273 278 278 276 275 273 272 270 261 246 258 290 306 306 312 318 314 319 323 325 326 309 305 298 293 287 286 287 282 287 287 284 280 278 275 273 270 268
254 256 255 250 252 258 265 269 269 269 269 274 274 263 259 255 262 279 290 294 296 305 305 301 309 317 313 307 305 302 296 300 304 300 293 291 288 287 285 286 285 282 279 276
256 254 256 260 256 245 245 250 258 265 262 267 277 272 263 265 266 273 279 282 287 289 289 293 295 297 298 300 299 299 299 296 291 289 289 286 285 285 286 285 283 281 279 277